Station Historical Data
Daily Summary for September 2, 2017 Units:  Metric    English   Both
« Previous Day
Next Day »
Daily Weekly Monthly Yearly Custom
  High: Low: Average:
Temperature: 27.1 °C 14.7 °C 20.2 °C
Dew Point: 17 °C 13.4 °C 15.3 °C
Humidity: 93% 48% 76%
Wind Speed: 3.2km/h 0km/h 0.3km/h
Wind Gust: 12.9km/h - -
Wind- - West
Pressure: 1019.5 hPa 1015.8 hPa -
Precipitation: 0 mm    
Historical Graphs
 
 
Tabular Data for September 2, 2017
Time Temperature Dew Point Pressure Wind Wind Speed Wind Gust Humidity Rainfall Rate (Hourly) Conditions
00:00 17.6 °C 15.9 °C 1016.1 hPa Calm     90% 0 mm RA
00:10 17.6 °C 15.9 °C 1016.1 hPa Calm     90% 0 mm SCT
00:15 17.6 °C 15.9 °C 1016.1 hPa Calm     90% 0 mm SCT
00:20 17.6 °C 15.7 °C 1016.5 hPa Calm     89% 0 mm CLR
00:25 17.6 °C 15.9 °C 1016.5 hPa Calm     90% 0 mm CLR
00:30 17.5 °C 15.7 °C 1016.5 hPa Calm     89% 0 mm CLR
00:35 17.5 °C 15.7 °C 1016.8 hPa Calm     89% 0 mm CLR
00:40 17.5 °C 15.7 °C 1016.8 hPa Calm     89% 0 mm CLR
00:45 17.4 °C 15.4 °C 1016.5 hPa Calm     88% 0 mm CLR
00:50 17.4 °C 15.6 °C 1016.5 hPa Calm     89% 0 mm CLR
00:55 17.4 °C 15.6 °C 1016.5 hPa Calm     89% 0 mm CLR
01:00 17.4 °C 15.6 °C 1016.5 hPa Calm     89% 0 mm CLR
01:05 17.3 °C 15.5 °C 1016.5 hPa Calm     89% 0 mm CLR
01:10 17.3 °C 15.4 °C 1016.5 hPa Calm     89% 0 mm CLR
01:20 17.2 °C 15.3 °C 1016.5 hPa Calm     89% 0 mm CLR
01:25 17.1 °C 15.4 °C 1016.1 hPa Calm     90% 0 mm CLR
01:30 17.1 °C 15.4 °C 1016.1 hPa Calm     90% 0 mm CLR
01:35 17 °C 15.3 °C 1016.1 hPa Calm     90% 0 mm CLR
01:40 16.9 °C 15.2 °C 1016.1 hPa Calm     90% 0 mm CLR
01:45 16.8 °C 15.2 °C 1016.1 hPa Calm     90% 0 mm CLR
01:50 16.8 °C 15.1 °C 1016.1 hPa Calm     90% 0 mm CLR
01:55 16.7 °C 15.1 °C 1016.1 hPa Calm     90% 0 mm CLR
02:00 16.7 °C 15 °C 1016.1 hPa Calm     90% 0 mm CLR
02:10 16.6 °C 15.1 °C 1016.1 hPa Calm     91% 0 mm CLR
02:15 16.6 °C 15.1 °C 1016.1 hPa Calm     91% 0 mm CLR
02:20 16.5 °C 15 °C 1016.1 hPa Calm     91% 0 mm CLR
02:25 16.4 °C 14.9 °C 1016.1 hPa Calm     91% 0 mm CLR
02:30 16.4 °C 14.9 °C 1016.1 hPa Calm     91% 0 mm CLR
02:35 16.3 °C 14.8 °C 1016.1 hPa Calm     91% 0 mm CLR
02:40 16.3 °C 14.8 °C 1016.1 hPa Calm     91% 0 mm CLR
02:45 16.3 °C 14.8 °C 1016.1 hPa Calm     91% 0 mm CLR
02:50 16.3 °C 14.8 °C 1016.1 hPa Calm     91% 0 mm CLR
02:55 16.2 °C 14.7 °C 1015.8 hPa Calm     91% 0 mm CLR
03:00 16.2 °C 14.7 °C 1015.8 hPa Calm     91% 0 mm CLR
03:05 16.1 °C 14.7 °C 1016.1 hPa Calm     91% 0 mm CLR
03:10 16.1 °C 14.6 °C 1016.1 hPa Calm     91% 0 mm CLR
03:15 16.1 °C 14.6 °C 1016.1 hPa Calm     91% 0 mm CLR
03:20 16.1 °C 14.6 °C 1016.1 hPa Calm     91% 0 mm CLR
03:25 16 °C 14.6 °C 1016.1 hPa Calm     91% 0 mm CLR
03:30 15.9 °C 14.5 °C 1016.1 hPa Calm     91% 0 mm CLR
03:35 15.9 °C 14.5 °C 1016.1 hPa Calm     91% 0 mm CLR
03:40 15.9 °C 14.5 °C 1016.1 hPa Calm     91% 0 mm CLR
03:45 15.9 °C 14.5 °C 1016.1 hPa Calm     91% 0 mm CLR
03:50 15.8 °C 14.4 °C 1016.1 hPa Calm     91% 0 mm CLR
03:55 15.8 °C 14.4 °C 1016.1 hPa Calm     91% 0 mm CLR
04:00 15.8 °C 14.4 °C 1016.1 hPa Calm     91% 0 mm CLR
04:05 15.8 °C 14.3 °C 1016.1 hPa Calm     91% 0 mm CLR
04:10 15.7 °C 14.2 °C 1016.1 hPa Calm     91% 0 mm CLR
04:15 15.6 °C 14.2 °C 1016.1 hPa Calm     91% 0 mm CLR
04:20 15.6 °C 14.3 °C 1016.1 hPa Calm     92% 0 mm CLR
04:25 15.6 °C 14.3 °C 1016.1 hPa Calm     92% 0 mm CLR
04:30 15.6 °C 14.3 °C 1016.1 hPa Calm     92% 0 mm CLR
04:40 15.6 °C 14.2 °C 1016.1 hPa Calm     92% 0 mm CLR
04:45 15.5 °C 14.2 °C 1016.1 hPa Calm     92% 0 mm CLR
04:50 15.5 °C 14.2 °C 1016.1 hPa Calm     92% 0 mm CLR
04:55 15.4 °C 14.2 °C 1016.1 hPa Calm     92% 0 mm CLR
05:00 15.4 °C 14.1 °C 1016.1 hPa Calm     92% 0 mm CLR
05:05 15.4 °C 14.1 °C 1016.1 hPa Calm     92% 0 mm CLR
05:10 15.4 °C 14.1 °C 1016.1 hPa Calm     92% 0 mm CLR
05:15 15.4 °C 14.1 °C 1016.1 hPa Calm     92% 0 mm CLR
05:20 15.4 °C 14.1 °C 1016.1 hPa Calm     92% 0 mm CLR
05:25 15.3 °C 14.1 °C 1016.1 hPa Calm     92% 0 mm CLR
05:30 15.3 °C 14.1 °C 1016.1 hPa Calm     92% 0 mm CLR
05:35 15.3 °C 14 °C 1016.5 hPa Calm     92% 0 mm CLR
05:40 15.2 °C 13.9 °C 1016.5 hPa Calm     92% 0 mm CLR
05:45 15.2 °C 13.9 °C 1016.5 hPa Calm     92% 0 mm CLR
05:50 15.2 °C 13.9 °C 1016.5 hPa Calm     92% 0 mm CLR
05:55 15.2 °C 13.9 °C 1016.5 hPa Calm     92% 0 mm CLR
06:00 15.1 °C 13.8 °C 1016.8 hPa Calm     92% 0 mm CLR
06:05 15.1 °C 13.8 °C 1016.8 hPa Calm     92% 0 mm CLR
06:10 15.1 °C 13.8 °C 1016.8 hPa Calm     92% 0 mm CLR
06:15 15 °C 13.7 °C 1016.8 hPa Calm     92% 0 mm CLR
06:20 15 °C 13.7 °C 1016.8 hPa Calm     92% 0 mm CLR
06:25 15 °C 13.7 °C 1016.8 hPa Calm     92% 0 mm CLR
06:30 15 °C 13.7 °C 1017.2 hPa Calm     92% 0 mm CLR
06:35 14.9 °C 13.7 °C 1017.2 hPa Calm     92% 0 mm CLR
06:40 14.9 °C 13.6 °C 1017.2 hPa Calm     92% 0 mm CLR
06:45 14.8 °C 13.6 °C 1017.2 hPa Calm     92% 0 mm CLR
06:50 14.8 °C 13.6 °C 1017.2 hPa Calm     92% 0 mm CLR
06:55 14.8 °C 13.6 °C 1017.2 hPa Calm     92% 0 mm CLR
07:00 14.8 °C 13.6 °C 1017.2 hPa Calm     92% 0 mm CLR
07:10 14.8 °C 13.5 °C 1017.2 hPa Calm     92% 0 mm CLR
07:15 14.8 °C 13.5 °C 1017.2 hPa Calm     92% 0 mm CLR
07:20 14.8 °C 13.5 °C 1017.2 hPa Calm     92% 0 mm SCT
07:25 14.7 °C 13.4 °C 1017.2 hPa Calm     92% 0 mm SCT
07:30 14.7 °C 13.4 °C 1017.2 hPa Calm     92% 0 mm SCT
07:35 14.7 °C 13.6 °C 1017.2 hPa Calm     93% 0 mm SCT
07:40 14.8 °C 13.7 °C 1017.2 hPa Calm     93% 0 mm SCT
07:45 14.8 °C 13.7 °C 1017.2 hPa Calm     93% 0 mm SCT
07:55 15.1 °C 13.9 °C 1017.5 hPa Calm     93% 0 mm SCT
08:00 15.3 °C 14.1 °C 1017.2 hPa Calm     93% 0 mm SCT
08:10 15.6 °C 14.5 °C 1017.5 hPa Calm     93% 0 mm SCT
08:15 15.8 °C 14.7 °C 1017.5 hPa Calm     93% 0 mm SCT
08:20 16.1 °C 14.9 °C 1017.5 hPa Calm     93% 0 mm SCT
08:25 16.4 °C 15.1 °C 1017.5 hPa Calm     92% 0 mm SCT
08:30 16.7 °C 15.2 °C 1017.5 hPa Calm     91% 0 mm SCT
08:35 16.9 °C 15.1 °C 1017.5 hPa Calm     89% 0 mm SCT
08:40 17 °C 15 °C 1017.5 hPa Calm     88% 0 mm SCT
08:45 17.1 °C 15.1 °C 1017.5 hPa Calm   3.2 km/h 88% 0 mm SCT
08:50 17.2 °C 15.2 °C 1017.5 hPa Calm     88% 0 mm SCT
08:55 17.3 °C 15.1 °C 1017.5 hPa Calm   1.6 km/h 87% 0 mm SCT
09:00 17.4 °C 15 °C 1017.8 hPa Calm   1.6 km/h 86% 0 mm SCT
09:10 17.6 °C 15.2 °C 1017.8 hPa Calm     86% 0 mm SCT
09:15 17.7 °C 15.2 °C 1017.8 hPa Calm   1.6 km/h 85% 0 mm SCT
09:20 17.8 °C 15.1 °C 1017.8 hPa Calm   3.2 km/h 84% 0 mm SCT
09:25 17.9 °C 15.2 °C 1017.8 hPa Calm   1.6 km/h 84% 0 mm SCT
09:30 18 °C 15.1 °C 1017.8 hPa Calm   4.8 km/h 83% 0 mm SCT
09:40 18.3 °C 15.4 °C 1018.2 hPa Calm   1.6 km/h 83% 0 mm SCT
09:45 18.6 °C 15.4 °C 1018.2 hPa Calm   3.2 km/h 82% 0 mm SCT
09:50 18.8 °C 15.7 °C 1018.2 hPa Calm   4.8 km/h 82% 0 mm SCT
09:55 19.1 °C 15.4 °C 1018.2 hPa Calm   3.2 km/h 79% 0 mm SCT
10:00 19.4 °C 15.7 °C 1018.2 hPa Calm   3.2 km/h 79% 0 mm SCT
10:05 19.7 °C 15.8 °C 1018.2 hPa Calm   1.6 km/h 78% 0 mm SCT
10:10 19.8 °C 15.7 °C 1018.2 hPa WNW 1.6 km/h 3.2 km/h 77% 0 mm SCT
10:15 19.9 °C 15.8 °C 1018.5 hPa Calm   3.2 km/h 77% 0 mm SCT
10:20 19.9 °C 15.6 °C 1018.5 hPa Calm   8 km/h 76% 0 mm FEW
10:25 20.1 °C 15.9 °C 1018.5 hPa Calm   1.6 km/h 77% 0 mm FEW
10:30 20.2 °C 15.8 °C 1018.5 hPa Calm   4.8 km/h 76% 0 mm FEW
10:35 20.4 °C 16 °C 1018.5 hPa Calm   3.2 km/h 76% 0 mm FEW
10:40 20.5 °C 15.7 °C 1018.5 hPa Calm   8 km/h 74% 0 mm FEW
10:45 20.7 °C 16.3 °C 1018.8 hPa Calm   1.6 km/h 76% 0 mm FEW
10:50 21.2 °C 16.3 °C 1018.8 hPa Calm   4.8 km/h 74% 0 mm FEW
10:55 21.3 °C 16.5 °C 1018.8 hPa Calm   3.2 km/h 74% 0 mm FEW
11:00 21.6 °C 16.3 °C 1018.8 hPa Calm   1.6 km/h 72% 0 mm FEW
11:05 21.6 °C 15.9 °C 1018.8 hPa West 1.6 km/h 8 km/h 70% 0 mm FEW
11:10 21.7 °C 16.2 °C 1018.8 hPa Calm   3.2 km/h 71% 0 mm FEW
11:15 21.8 °C 16.1 °C 1018.8 hPa Calm   4.8 km/h 70% 0 mm FEW
11:20 21.9 °C 16 °C 1018.8 hPa Calm   8 km/h 69% 0 mm FEW
11:25 22.1 °C 15.7 °C 1018.8 hPa WSW 1.6 km/h 8 km/h 67% 0 mm FEW
11:30 22.3 °C 16.1 °C 1018.8 hPa WSW 1.6 km/h 8 km/h 68% 0 mm FEW
11:40 22.6 °C 16.2 °C 1018.8 hPa WSW 1.6 km/h 4.8 km/h 67% 0 mm FEW
11:45 22.7 °C 16.5 °C 1018.8 hPa Calm   4.8 km/h 68% 0 mm FEW
11:50 22.9 °C 16.7 °C 1018.8 hPa Calm   4.8 km/h 68% 0 mm FEW
11:55 23.2 °C 16.8 °C 1018.8 hPa Calm   4.8 km/h 67% 0 mm FEW
12:00 23.6 °C 16.6 °C 1018.8 hPa WSW 1.6 km/h 8 km/h 65% 0 mm FEW
12:10 24.1 °C 16.8 °C 1018.8 hPa Calm   8 km/h 64% 0 mm FEW
12:15 24.4 °C 16.3 °C 1018.8 hPa Calm   4.8 km/h 61% 0 mm FEW
12:20 24.8 °C 16.7 °C 1018.8 hPa NW 1.6 km/h 3.2 km/h 61% 0 mm FEW
12:25 25 °C 16.7 °C 1018.8 hPa West 1.6 km/h 4.8 km/h 60% 0 mm FEW
12:30 25.2 °C 16.9 °C 1018.5 hPa Calm   3.2 km/h 60% 0 mm FEW
12:35 25.4 °C 16.5 °C 1018.5 hPa West 3.2 km/h 12.9 km/h 58% 0 mm FEW
12:40 25.4 °C 16.8 °C 1018.8 hPa Calm   4.8 km/h 59% 0 mm FEW
12:45 25.7 °C 16.3 °C 1018.8 hPa Calm   3.2 km/h 56% 0 mm FEW
12:50 25.9 °C 16.7 °C 1018.5 hPa Calm   1.6 km/h 57% 0 mm FEW
12:55 26.2 °C 17 °C 1018.8 hPa West 1.6 km/h 3.2 km/h 57% 0 mm FEW
13:00 26.4 °C 16.3 °C 1018.5 hPa West 3.2 km/h 8 km/h 54% 0 mm FEW
13:05 26.2 °C 16.8 °C 1018.5 hPa Calm   4.8 km/h 56% 0 mm FEW
13:10 26.2 °C 16.4 °C 1018.5 hPa Calm   8 km/h 55% 0 mm FEW
13:15 26.1 °C 16.4 °C 1018.5 hPa West 3.2 km/h 8 km/h 55% 0 mm FEW
13:20 26.2 °C 15.8 °C 1018.5 hPa WSW 1.6 km/h 8 km/h 53% 0 mm FEW
13:25 26.3 °C 15.7 °C 1018.5 hPa WNW 1.6 km/h 4.8 km/h 52% 0 mm FEW
13:30 26.5 °C 16.2 °C 1018.5 hPa Calm   3.2 km/h 53% 0 mm FEW
13:35 26.6 °C 16.5 °C 1018.5 hPa WNW 1.6 km/h 4.8 km/h 54% 0 mm FEW
13:40 26.6 °C 15 °C 1018.5 hPa WNW 1.6 km/h 9.7 km/h 49% 0 mm FEW
13:45 26.4 °C 15.2 °C 1018.2 hPa West 1.6 km/h 8 km/h 50% 0 mm FEW
13:50 26.5 °C 16.1 °C 1018.2 hPa Calm   3.2 km/h 53% 0 mm FEW
13:55 26.8 °C 16.4 °C 1018.2 hPa NW 1.6 km/h 4.8 km/h 53% 0 mm FEW
14:00 26.9 °C 16.3 °C 1018.2 hPa WNW 1.6 km/h 8 km/h 52% 0 mm FEW
14:05 27.1 °C 15.7 °C 1018.2 hPa West 1.6 km/h 4.8 km/h 50% 0 mm FEW
14:10 27 °C 15.7 °C 1018.2 hPa Calm   4.8 km/h 50% 0 mm FEW
14:15 27.1 °C 15.4 °C 1018.2 hPa WSW 1.6 km/h 4.8 km/h 49% 0 mm FEW
14:20 27.1 °C 16.1 °C 1017.8 hPa WSW 1.6 km/h 4.8 km/h 51% 0 mm SCT
14:25 27 °C 15.1 °C 1017.8 hPa WSW 1.6 km/h 8 km/h 48% 0 mm SCT
14:30 26.8 °C 15.5 °C 1017.8 hPa West 1.6 km/h 8 km/h 50% 0 mm SCT
14:35 26.7 °C 15.7 °C 1017.8 hPa NW 1.6 km/h 8 km/h 51% 0 mm SCT
14:40 26.4 °C 15.2 °C 1017.8 hPa WNW 1.6 km/h 8 km/h 50% 0 mm SCT
14:45 25.9 °C 15.3 °C 1017.8 hPa Calm   3.2 km/h 52% 0 mm SCT
14:50 25.5 °C 15.8 °C 1017.8 hPa Calm   4.8 km/h 55% 0 mm SCT
14:55 25.3 °C 15.9 °C 1017.8 hPa WSW 1.6 km/h 9.7 km/h 56% 0 mm SCT
15:00 25.3 °C 15.3 °C 1017.8 hPa WSW 1.6 km/h 3.2 km/h 54% 0 mm SCT
15:05 25.4 °C 15.7 °C 1017.8 hPa Calm   6.4 km/h 55% 0 mm SCT
15:10 25.2 °C 14.9 °C 1017.8 hPa Calm   8 km/h 53% 0 mm SCT
15:15 25.1 °C 15.7 °C 1017.5 hPa West 1.6 km/h 4.8 km/h 56% 0 mm SCT
15:20 25 °C 15.6 °C 1017.5 hPa Calm   3.2 km/h 56% 0 mm BKN
15:25 24.9 °C 15 °C 1017.5 hPa West 1.6 km/h 4.8 km/h 54% 0 mm BKN
15:30 24.8 °C 15.4 °C 1017.5 hPa Calm   1.6 km/h 56% 0 mm BKN
15:35 24.9 °C 15.5 °C 1017.5 hPa West 1.6 km/h 8 km/h 56% 0 mm BKN
15:40 25.1 °C 15.4 °C 1017.5 hPa Calm   4.8 km/h 55% 0 mm BKN
15:45 25.2 °C 15.8 °C 1017.5 hPa Calm   4.8 km/h 56% 0 mm BKN
15:50 25.2 °C 15.8 °C 1017.5 hPa SW 1.6 km/h 3.2 km/h 56% 0 mm BKN
15:55 25 °C 15.3 °C 1017.5 hPa Calm   3.2 km/h 55% 0 mm BKN
16:00 24.9 °C 15.3 °C 1017.2 hPa Calm   3.2 km/h 55% 0 mm BKN
16:05 25.1 °C 15.3 °C 1017.2 hPa Calm   1.6 km/h 55% 0 mm BKN
16:10 25.1 °C 15.4 °C 1017.2 hPa West 1.6 km/h 3.2 km/h 55% 0 mm BKN
16:15 25.3 °C 15 °C 1017.2 hPa WNW 1.6 km/h 4.8 km/h 53% 0 mm BKN
16:20 25.3 °C 15.9 °C 1017.2 hPa West 1.6 km/h 3.2 km/h 56% 0 mm BKN
16:25 25.3 °C 15.7 °C 1017.2 hPa Calm   4.8 km/h 55% 0 mm BKN
16:30 25.4 °C 15.5 °C 1017.2 hPa West 1.6 km/h 3.2 km/h 54% 0 mm BKN
16:40 25.6 °C 15.3 °C 1017.2 hPa West 1.6 km/h 4.8 km/h 53% 0 mm BKN
16:45 25.5 °C 15.5 °C 1017.2 hPa WSW 1.6 km/h 8 km/h 54% 0 mm BKN
16:50 25.3 °C 15.7 °C 1017.2 hPa Calm   8 km/h 55% 0 mm BKN
16:55 25.3 °C 15.9 °C 1017.2 hPa Calm   4.8 km/h 56% 0 mm BKN
17:00 25.3 °C 15.7 °C 1017.2 hPa Calm   3.2 km/h 55% 0 mm BKN
17:05 25.3 °C 15.7 °C 1017.5 hPa Calm   3.2 km/h 55% 0 mm BKN
17:10 25.2 °C 15.8 °C 1017.5 hPa Calm   1.6 km/h 56% 0 mm BKN
17:15 25.1 °C 15.7 °C 1017.5 hPa West 1.6 km/h 3.2 km/h 56% 0 mm BKN
17:20 25 °C 15.6 °C 1017.2 hPa Calm   3.2 km/h 56% 0 mm SCT
17:25 25 °C 15.6 °C 1017.5 hPa Calm   4.8 km/h 56% 0 mm SCT
17:30 24.9 °C 15.6 °C 1017.5 hPa Calm   3.2 km/h 56% 0 mm SCT
17:35 24.8 °C 15.1 °C 1017.2 hPa Calm   1.6 km/h 55% 0 mm SCT
17:45 24.4 °C 15.1 °C 1017.2 hPa Calm   3.2 km/h 56% 0 mm SCT
17:50 24.4 °C 16.1 °C 1017.2 hPa Calm   4.8 km/h 60% 0 mm SCT
17:55 24.4 °C 15.8 °C 1017.2 hPa Calm   1.6 km/h 59% 0 mm SCT
18:00 24.3 °C 15.8 °C 1017.2 hPa Calm   1.6 km/h 59% 0 mm SCT
18:05 24.3 °C 16 °C 1017.2 hPa Calm   1.6 km/h 60% 0 mm SCT
18:10 24.3 °C 14.9 °C 1017.2 hPa West 1.6 km/h 8 km/h 56% 0 mm SCT
18:20 24.2 °C 15.4 °C 1017.2 hPa Calm   1.6 km/h 58% 0 mm SCT
18:25 24.1 °C 15.6 °C 1017.5 hPa Calm   3.2 km/h 59% 0 mm SCT
18:30 24 °C 15.2 °C 1017.2 hPa Calm   1.6 km/h 58% 0 mm SCT
18:35 23.9 °C 15.4 °C 1017.5 hPa Calm   1.6 km/h 59% 0 mm SCT
18:40 23.8 °C 15.6 °C 1017.5 hPa Calm   1.6 km/h 60% 0 mm SCT
18:45 23.7 °C 15.5 °C 1017.5 hPa Calm   1.6 km/h 60% 0 mm SCT
18:50 23.7 °C 15.2 °C 1017.5 hPa Calm   1.6 km/h 59% 0 mm SCT
18:55 23.6 °C 15.4 °C 1017.5 hPa Calm     60% 0 mm SCT
19:00 23.5 °C 15.6 °C 1017.5 hPa Calm   1.6 km/h 61% 0 mm SCT
19:10 23.2 °C 15.6 °C 1017.5 hPa Calm   1.6 km/h 62% 0 mm SCT
19:15 23.1 °C 15.4 °C 1017.8 hPa Calm     62% 0 mm SCT
19:20 23 °C 15.8 °C 1017.8 hPa Calm     64% 0 mm SCT
19:25 22.9 °C 15.5 °C 1017.8 hPa Calm     63% 0 mm SCT
19:30 22.8 °C 15.6 °C 1017.8 hPa Calm     64% 0 mm FEW
19:35 22.7 °C 15.7 °C 1017.8 hPa Calm     65% 0 mm FEW
19:40 22.5 °C 15.8 °C 1017.8 hPa Calm     66% 0 mm FEW
19:45 22.3 °C 16.2 °C 1017.8 hPa Calm     68% 0 mm FEW
19:50 22.2 °C 16.2 °C 1017.8 hPa Calm     69% 0 mm FEW
19:55 21.9 °C 16.2 °C 1017.8 hPa Calm     70% 0 mm FEW
20:00 21.7 °C 16 °C 1017.8 hPa Calm     70% 0 mm FEW
20:10 21.4 °C 15.9 °C 1018.2 hPa Calm     71% 0 mm FEW
20:15 21.3 °C 16.5 °C 1018.2 hPa Calm     74% 0 mm FEW
20:20 21.2 °C 15.9 °C 1018.2 hPa Calm     72% 0 mm FEW
20:25 21.1 °C 16.1 °C 1018.2 hPa Calm     73% 0 mm FEW
20:30 20.9 °C 15.9 °C 1018.2 hPa Calm     73% 0 mm FEW
20:35 20.8 °C 15.8 °C 1018.2 hPa Calm     73% 0 mm FEW
20:40 20.7 °C 15.7 °C 1018.2 hPa Calm     73% 0 mm FEW
20:45 20.6 °C 16.2 °C 1018.2 hPa Calm     76% 0 mm FEW
20:50 20.5 °C 16.1 °C 1018.2 hPa Calm     76% 0 mm FEW
20:55 20.3 °C 16.2 °C 1018.2 hPa Calm     77% 0 mm FEW
21:00 20.2 °C 16.1 °C 1018.5 hPa Calm     77% 0 mm FEW
21:05 20.1 °C 16.2 °C 1018.5 hPa Calm     78% 0 mm FEW
21:10 19.9 °C 15.8 °C 1018.5 hPa Calm     77% 0 mm FEW
21:15 19.8 °C 15.9 °C 1018.5 hPa Calm     78% 0 mm FEW
21:20 19.8 °C 16.1 °C 1018.5 hPa Calm     79% 0 mm FEW
21:25 19.7 °C 15.9 °C 1018.5 hPa Calm     79% 0 mm FEW
21:30 19.6 °C 15.8 °C 1018.5 hPa Calm     79% 0 mm FEW
21:40 19.4 °C 15.8 °C 1018.5 hPa Calm     80% 0 mm FEW
21:45 19.3 °C 15.8 °C 1018.5 hPa Calm     80% 0 mm FEW
21:50 19.2 °C 15.9 °C 1018.8 hPa Calm     81% 0 mm FEW
21:55 19.1 °C 15.8 °C 1018.8 hPa Calm     81% 0 mm FEW
22:00 19.1 °C 15.7 °C 1018.8 hPa Calm     81% 0 mm FEW
22:10 18.9 °C 15.8 °C 1018.8 hPa Calm     82% 0 mm FEW
22:15 18.8 °C 15.7 °C 1018.8 hPa Calm     82% 0 mm FEW
22:20 18.8 °C 15.8 °C 1019.2 hPa Calm     83% 0 mm FEW
22:25 18.7 °C 15.9 °C 1019.2 hPa Calm     84% 0 mm FEW
22:30 18.7 °C 15.9 °C 1019.2 hPa Calm     84% 0 mm FEW
22:35 18.6 °C 16.1 °C 1019.2 hPa Calm     85% 0 mm FEW
22:40 18.6 °C 15.8 °C 1019.2 hPa Calm     84% 0 mm FEW
22:45 18.6 °C 16 °C 1019.2 hPa Calm     85% 0 mm FEW
22:50 18.5 °C 15.9 °C 1019.5 hPa Calm     85% 0 mm FEW
22:55 18.4 °C 15.7 °C 1019.5 hPa Calm     84% 0 mm FEW
23:00 18.4 °C 15.8 °C 1019.5 hPa Calm     85% 0 mm FEW
23:05 18.3 °C 15.8 °C 1019.5 hPa Calm     85% 0 mm FEW
23:10 18.3 °C 15.8 °C 1019.5 hPa Calm     85% 0 mm FEW
23:20 18.3 °C 15.7 °C 1019.5 hPa Calm     85% 0 mm CLR
23:25 18.2 °C 15.8 °C 1019.5 hPa Calm     86% 0 mm CLR
23:30 18.2 °C 15.8 °C 1019.5 hPa Calm     86% 0 mm CLR
23:40 18.1 °C 15.7 °C 1019.5 hPa Calm     86% 0 mm CLR
23:45 18.1 °C 15.7 °C 1019.5 hPa Calm     86% 0 mm CLR
23:50 18.1 °C 15.7 °C 1019.5 hPa Calm     86% 0 mm CLR
23:55 18.1 °C 15.8 °C 1019.5 hPa Calm     87% 0 mm CLR
Piedmont Bend
Compliments of Weather Underground - 2 mb